San Luis Obispo, CA

4:27 AM PDT on October 22, 2017 (GMT -0700)
San Luis Obispo County-McChesney

Weather History for KSBP - December, 2012

Change the Weather History Date:

Wednesday, December 5, 2012

  Actual Average Record
Temperature  
Mean Temperature 58 °F -  
Max Temperature 68 °F 65 °F 82 °F (1958)
Min Temperature 48 °F 44 °F 32 °F (1948)
Degree Days  
Heating Degree Days 7    
Growing Degree Days 8 (Base 50)    
Moisture  
Dew Point 55 °F    
Average Humidity 94    
Maximum Humidity 100    
Minimum Humidity 76    
Precipitation  
Precipitation 0.00 in - - ()
Sea Level Pressure  
Sea Level Pressure 30.14 in    
Wind  
Wind Speed 2 mph (NW)    
Max Wind Speed 13 mph    
Max Gust Speed -    
Visibility 7 miles    
Events Fog , Rain    
Averages and records for this station are not official NWS values.
T = Trace of Precipitation, MM = Missing Value Source: NWS Daily Summary

Daily Weather History Graph

Daily Weather History Graph

Search for Another Location

Airport or City:

Trip Planner

Search our weather history database for the weather conditions in past years. The results will help you decide how hot, cold, wet, or windy it might be!

Date:

Astronomy

Dec. 05, 2012 Rise Set
Actual Time 6:56 AM PST 4:50 PM PST
Civil Twilight 6:28 AM PST 5:18 PM PST
Nautical Twilight 5:57 AM PST 5:49 PM PST
Astronomical Twilight 5:26 AM PST 6:20 PM PST
Moon 11:33 PM PST (12/5) 11:33 AM PST (12/5)
Length of Visible Light 10h 49m
Length of Day
9h 53m
Waning Gibbous, 58% of the Moon is Illuminated
Dec 5
Waning Gibbous
Dec 6
Last Quarter
Dec 13
New
Dec 19
First Quarter
Dec 28
Full

Hourly Weather History & Observations

Time (PST) Temp. Dew Point Humidity Pressure Visibility Wind Dir Wind Speed Gust Speed Precip Events Conditions
12:53 AM 51.8 °F 50.0 °F 94% 30.20 in 10.0 mi Calm Calm - N/A   Mostly Cloudy
12:56 AM 51.1 °F 50.0 °F 96% 30.20 in 10.0 mi Calm Calm - N/A   Mostly Cloudy
1:20 AM 50.0 °F 48.2 °F 94% 30.20 in 9.0 mi Calm Calm - N/A   Scattered Clouds
1:33 AM 50.0 °F 50.0 °F 100% 30.20 in 1.5 mi Calm Calm - N/A   Partly Cloudy
1:35 AM 50.0 °F 50.0 °F 100% 30.20 in 0.8 mi Calm Calm - N/A   Mist
1:47 AM 50.0 °F 50.0 °F 100% 30.20 in 0.2 mi SE 3.5 mph - N/A Fog Fog
1:56 AM 50.0 °F 50.0 °F 100% 30.20 in 0.2 mi Calm Calm - N/A Fog Fog
2:09 AM 51.8 °F 51.8 °F 100% 30.20 in 0.5 mi Calm Calm - N/A Fog Fog
2:16 AM 51.8 °F 50.0 °F 94% 30.20 in 0.2 mi Calm Calm - N/A Fog Fog
2:56 AM 50.0 °F 50.0 °F 100% 30.21 in 0.2 mi Calm Calm - N/A Fog Fog
3:45 AM 50.0 °F 50.0 °F 100% 30.19 in 0.5 mi Calm Calm - N/A Fog Fog
3:56 AM 50.0 °F 50.0 °F 100% 30.19 in 0.5 mi Calm Calm - N/A Fog Fog
4:10 AM 50.0 °F 50.0 °F 100% 30.19 in 1.5 mi Calm Calm - N/A   Mostly Cloudy
4:14 AM 50.0 °F 50.0 °F 100% 30.19 in 2.5 mi Calm Calm - N/A   Scattered Clouds
4:22 AM 50.0 °F 50.0 °F 100% 30.18 in 6.0 mi Calm Calm - N/A   Scattered Clouds
4:56 AM 50.0 °F 48.9 °F 96% 30.18 in 10.0 mi Calm Calm - N/A   Partly Cloudy
6:56 AM 48.9 °F 48.0 °F 97% 30.19 in 10.0 mi Calm Calm - N/A   Clear
7:56 AM 50.0 °F 48.9 °F 96% 30.20 in 10.0 mi East 5.8 mph - N/A   Clear
8:56 AM 55.9 °F 52.0 °F 87% 30.19 in 10.0 mi Calm Calm - N/A   Scattered Clouds
9:56 AM 60.1 °F 55.0 °F 83% 30.19 in 10.0 mi Calm Calm - N/A   Scattered Clouds
10:56 AM 64.0 °F 57.9 °F 80% 30.18 in 10.0 mi WNW 11.5 mph - N/A   Mostly Cloudy
11:56 AM 64.9 °F 59.0 °F 81% 30.14 in 10.0 mi NW 8.1 mph - N/A   Mostly Cloudy
12:56 PM 66.9 °F 59.0 °F 76% 30.11 in 10.0 mi NW 8.1 mph - N/A   Mostly Cloudy
1:56 PM 68.0 °F 60.1 °F 76% 30.09 in 10.0 mi NW 11.5 mph - N/A   Scattered Clouds
2:56 PM 66.9 °F 60.1 °F 79% 30.07 in 10.0 mi NW 12.7 mph - N/A   Scattered Clouds
3:56 PM 64.0 °F 60.1 °F 87% 30.07 in 10.0 mi NNW 11.5 mph - N/A   Mostly Cloudy
4:56 PM 62.1 °F 59.0 °F 90% 30.07 in 10.0 mi NW 10.4 mph - N/A   Mostly Cloudy
5:53 PM 60.8 °F 59.0 °F 94% 30.07 in 10.0 mi NNW 9.2 mph - N/A   Mostly Cloudy
5:56 PM 61.0 °F 59.0 °F 93% 30.07 in 10.0 mi NNW 8.1 mph - N/A   Mostly Cloudy
6:56 PM 61.0 °F 59.0 °F 93% 30.08 in 10.0 mi NNW 9.2 mph - N/A   Overcast
7:56 PM 61.0 °F 59.0 °F 93% 30.08 in 10.0 mi NW 6.9 mph - N/A   Overcast
8:56 PM 61.0 °F 59.0 °F 93% 30.07 in 10.0 mi NW 3.5 mph - N/A   Overcast
9:56 PM 61.0 °F 60.1 °F 97% 30.07 in 10.0 mi Calm Calm - N/A   Overcast
10:04 PM 60.8 °F 60.8 °F 100% 30.07 in 10.0 mi Calm Calm - N/A   Overcast
10:15 PM 60.8 °F 60.8 °F 100% 30.07 in 10.0 mi Calm Calm - 0.00 in Rain Light Rain
10:40 PM 62.6 °F 60.8 °F 94% 30.07 in 10.0 mi Calm Calm - 0.00 in   Overcast
10:56 PM 61.0 °F 60.1 °F 97% 30.07 in 10.0 mi NW 4.6 mph - 0.00 in   Overcast
11:28 PM 60.8 °F 60.8 °F 100% 30.07 in 10.0 mi NW 5.8 mph - N/A   Overcast
11:56 PM 61.0 °F 60.1 °F 97% 30.06 in 10.0 mi NNW 8.1 mph - N/A   Overcast